LAN9952 SCEL-SCIE

Flight info

Callsign LAN9952
Flight time 0h 42m
Altitude 33000
Route GELUS5B GELUS UQ809 ARUNI ARUNI6C
Aircraft A343/H-SDE2E3FGHIJ4J5M1RWXY/LB1D1

Departure

Time 2026-04-23 14:44
Airport Comodoro Arturo Merino Benítez International Airport (SCEL)

Arrival

Time 2026-04-23 15:27
Airport Carriel Sur International Airport (SCIE)
Time Latitude Longitude Altitude Speed Heading
2026-04-23 14:24 -33.39600 -70.79805 1569 ft 0 kts 177°
2026-04-23 14:32 -33.39598 -70.79806 1569 ft 2 kts 177°
2026-04-23 14:32 -33.39574 -70.79807 1569 ft 3 kts 177°
2026-04-23 14:32 -33.39553 -70.79809 1569 ft 3 kts 182°
2026-04-23 14:33 -33.39533 -70.79802 1569 ft 4 kts 236°
2026-04-23 14:33 -33.39526 -70.79776 1569 ft 3 kts 264°
2026-04-23 14:33 -33.39524 -70.79755 1569 ft 0 kts 267°
2026-04-23 14:37 -33.39525 -70.79766 1569 ft 4 kts 267°
2026-04-23 14:37 -33.39527 -70.79828 1570 ft 9 kts 268°
2026-04-23 14:37 -33.39530 -70.79911 1569 ft 11 kts 268°
2026-04-23 14:37 -33.39524 -70.80005 1570 ft 9 kts 284°
2026-04-23 14:38 -33.39471 -70.80043 1570 ft 11 kts 355°
2026-04-23 14:38 -33.39388 -70.80051 1570 ft 13 kts 355°
2026-04-23 14:38 -33.39288 -70.80056 1570 ft 16 kts 358°
2026-04-23 14:38 -33.39171 -70.80062 1570 ft 18 kts 356°
2026-04-23 14:39 -33.39039 -70.80071 1571 ft 20 kts 357°
2026-04-23 14:39 -33.38895 -70.80078 1571 ft 22 kts 357°
2026-04-23 14:39 -33.38738 -70.80086 1571 ft 24 kts 358°
2026-04-23 14:39 -33.38569 -70.80095 1571 ft 25 kts 356°
2026-04-23 14:40 -33.38390 -70.80106 1570 ft 27 kts 358°
2026-04-23 14:40 -33.38199 -70.80117 1570 ft 28 kts 358°
2026-04-23 14:40 -33.37999 -70.80127 1570 ft 29 kts 358°
2026-04-23 14:40 -33.37791 -70.80138 1570 ft 30 kts 357°
2026-04-23 14:41 -33.37616 -70.80147 1571 ft 17 kts 356°
2026-04-23 14:41 -33.37500 -70.80153 1571 ft 18 kts 358°
2026-04-23 14:41 -33.37369 -70.80159 1571 ft 20 kts 357°
2026-04-23 14:41 -33.37253 -70.80165 1571 ft 13 kts 356°
2026-04-23 14:42 -33.37204 -70.80168 1571 ft 6 kts 357°
2026-04-23 14:42 -33.37151 -70.80173 1571 ft 8 kts 348°
2026-04-23 14:42 -33.37114 -70.80223 1572 ft 8 kts 295°
2026-04-23 14:42 -33.37106 -70.80285 1576 ft 6 kts 267°
2026-04-23 14:43 -33.37126 -70.80342 1578 ft 10 kts 231°
2026-04-23 14:43 -33.37200 -70.80374 1577 ft 11 kts 178°
2026-04-23 14:43 -33.37221 -70.80373 1577 ft 0 kts 178°
2026-04-23 14:43 -33.37318 -70.80369 1577 ft 43 kts 178°
2026-04-23 14:44 -33.37846 -70.80339 1577 ft 106 kts 177°
2026-04-23 14:44 -33.38761 -70.80290 1579 ft 155 kts 178°
2026-04-23 14:44 -33.39903 -70.80230 2066 ft 161 kts 177°
2026-04-23 14:44 -33.41031 -70.80170 2719 ft 167 kts 177°
2026-04-23 14:45 -33.41839 -70.80127 2957 ft 185 kts 177°
2026-04-23 14:45 -33.43237 -70.80052 3350 ft 214 kts 177°
2026-04-23 14:45 -33.44836 -70.80002 3851 ft 244 kts 182°
2026-04-23 14:45 -33.46527 -70.80482 4594 ft 259 kts 211°
2026-04-23 14:46 -33.47974 -70.82751 5849 ft 269 kts 251°
2026-04-23 14:46 -33.48584 -70.84905 6864 ft 275 kts 252°
2026-04-23 14:46 -33.49042 -70.86327 7518 ft 279 kts 249°
2026-04-23 14:46 -33.49850 -70.88459 8339 ft 284 kts 245°
2026-04-23 14:47 -33.51086 -70.91285 9430 ft 289 kts 243°
2026-04-23 14:47 -33.51735 -70.92683 10136 ft 290 kts 243°
2026-04-23 14:47 -33.52751 -70.94825 10822 ft 305 kts 242°
2026-04-23 14:47 -33.53966 -70.97022 11265 ft 327 kts 229°
2026-04-23 14:48 -33.55829 -70.98667 11962 ft 339 kts 210°
2026-04-23 14:48 -33.57943 -70.99968 12782 ft 344 kts 208°
2026-04-23 14:48 -33.60108 -71.01246 13649 ft 349 kts 208°
2026-04-23 14:48 -33.62292 -71.02545 14498 ft 352 kts 208°
2026-04-23 14:49 -33.64491 -71.03866 15309 ft 354 kts 208°
2026-04-23 14:49 -33.66704 -71.05200 16132 ft 357 kts 209°
2026-04-23 14:49 -33.68928 -71.06547 16975 ft 359 kts 209°
2026-04-23 14:49 -33.71165 -71.07905 17797 ft 362 kts 209°
2026-04-23 14:50 -33.73421 -71.09276 18595 ft 365 kts 210°
2026-04-23 14:50 -33.75694 -71.10659 19271 ft 368 kts 210°
2026-04-23 14:50 -33.77993 -71.12059 19970 ft 371 kts 210°
2026-04-23 14:50 -33.80306 -71.13468 20673 ft 374 kts 210°
2026-04-23 14:51 -33.82603 -71.14869 21338 ft 377 kts 210°
2026-04-23 14:51 -33.84954 -71.16303 22010 ft 380 kts 211°
2026-04-23 14:51 -33.87325 -71.17751 22676 ft 384 kts 211°
2026-04-23 14:51 -33.89713 -71.19210 23317 ft 387 kts 211°
2026-04-23 14:52 -33.92125 -71.20685 23918 ft 390 kts 211°
2026-04-23 14:52 -33.94559 -71.22181 24407 ft 394 kts 211°
2026-04-23 14:52 -33.97013 -71.23685 24904 ft 397 kts 211°
2026-04-23 14:52 -33.99485 -71.25198 25410 ft 400 kts 211°
2026-04-23 14:53 -34.01977 -71.26724 25906 ft 403 kts 211°
2026-04-23 14:53 -34.04487 -71.28259 26404 ft 406 kts 211°
2026-04-23 14:53 -34.07014 -71.29803 26892 ft 408 kts 211°
2026-04-23 14:53 -34.09561 -71.31363 27381 ft 411 kts 211°
2026-04-23 14:54 -34.12118 -71.32931 27848 ft 414 kts 211°
2026-04-23 14:54 -34.14694 -71.34514 28283 ft 416 kts 211°
2026-04-23 14:54 -34.17283 -71.36106 28734 ft 419 kts 211°
2026-04-23 14:54 -34.19887 -71.37709 29180 ft 421 kts 211°
2026-04-23 14:55 -34.22507 -71.39324 29614 ft 424 kts 211°
2026-04-23 14:55 -34.25141 -71.40947 30010 ft 427 kts 211°
2026-04-23 14:55 -34.27797 -71.42586 30387 ft 429 kts 211°
2026-04-23 14:55 -34.30460 -71.44233 30716 ft 432 kts 212°
2026-04-23 14:56 -34.33109 -71.45875 31059 ft 434 kts 212°
2026-04-23 14:56 -34.35801 -71.47545 31388 ft 436 kts 212°
2026-04-23 14:56 -34.38509 -71.49224 31701 ft 439 kts 212°
2026-04-23 14:56 -34.41237 -71.50916 32015 ft 441 kts 212°
2026-04-23 14:57 -34.43974 -71.52613 32322 ft 443 kts 212°
2026-04-23 14:57 -34.46726 -71.54319 32698 ft 444 kts 212°
2026-04-23 14:57 -34.49471 -71.56022 33084 ft 444 kts 212°
2026-04-23 14:57 -34.52217 -71.57728 33205 ft 439 kts 212°
2026-04-23 14:58 -34.54890 -71.59381 33216 ft 424 kts 212°
2026-04-23 14:58 -34.57475 -71.60980 33215 ft 413 kts 212°
2026-04-23 14:58 -34.62577 -71.64156 33208 ft 412 kts 212°
2026-04-23 14:59 -34.67667 -71.67350 33217 ft 412 kts 212°
2026-04-23 14:59 -34.72755 -71.70536 33216 ft 412 kts 212°
2026-04-23 15:00 -34.77852 -71.73723 33226 ft 412 kts 212°
2026-04-23 15:00 -34.82953 -71.76914 33224 ft 412 kts 212°
2026-04-23 15:01 -34.88020 -71.80089 33231 ft 411 kts 212°
2026-04-23 15:01 -34.93111 -71.83283 33230 ft 411 kts 212°
2026-04-23 15:02 -34.98201 -71.86483 33224 ft 411 kts 212°
2026-04-23 15:02 -35.03296 -71.89689 33107 ft 417 kts 212°
2026-04-23 15:03 -35.05914 -71.91348 32919 ft 431 kts 212°
2026-04-23 15:03 -35.08612 -71.93058 32788 ft 443 kts 212°
2026-04-23 15:03 -35.11354 -71.94792 32556 ft 443 kts 212°
2026-04-23 15:03 -35.14091 -71.96515 32168 ft 441 kts 211°
2026-04-23 15:04 -35.16811 -71.98228 31669 ft 437 kts 211°
2026-04-23 15:04 -35.19467 -71.99900 31186 ft 434 kts 211°
2026-04-23 15:04 -35.22171 -72.01607 30667 ft 430 kts 211°
2026-04-23 15:04 -35.24827 -72.03287 30145 ft 427 kts 211°
2026-04-23 15:05 -35.27423 -72.04931 29600 ft 424 kts 211°
2026-04-23 15:05 -35.30033 -72.06587 29078 ft 420 kts 211°
2026-04-23 15:05 -35.32616 -72.08223 28551 ft 417 kts 211°
2026-04-23 15:05 -35.35183 -72.09849 28024 ft 414 kts 211°
2026-04-23 15:06 -35.37731 -72.11466 27529 ft 410 kts 211°
2026-04-23 15:06 -35.40257 -72.13070 27029 ft 407 kts 210°
2026-04-23 15:06 -35.42761 -72.14662 26506 ft 405 kts 210°
2026-04-23 15:06 -35.45252 -72.16249 25979 ft 403 kts 210°
2026-04-23 15:07 -35.47735 -72.17831 25484 ft 401 kts 210°
2026-04-23 15:07 -35.50200 -72.19401 24972 ft 399 kts 210°
2026-04-23 15:07 -35.52659 -72.20970 24476 ft 397 kts 210°
2026-04-23 15:07 -35.55101 -72.22532 23969 ft 395 kts 210°
2026-04-23 15:08 -35.57535 -72.24087 23426 ft 393 kts 210°
2026-04-23 15:08 -35.59952 -72.25634 22912 ft 389 kts 210°
2026-04-23 15:08 -35.62341 -72.27164 22412 ft 386 kts 210°
2026-04-23 15:09 -35.67062 -72.30189 21428 ft 379 kts 210°
2026-04-23 15:09 -35.69365 -72.31668 20948 ft 377 kts 210°
2026-04-23 15:09 -35.71681 -72.33153 20461 ft 374 kts 210°
2026-04-23 15:09 -35.73978 -72.34629 19985 ft 372 kts 210°
2026-04-23 15:10 -35.75523 -72.35623 19653 ft 370 kts 210°
2026-04-23 15:10 -35.78534 -72.37561 19012 ft 367 kts 210°
2026-04-23 15:10 -35.80787 -72.39013 18539 ft 365 kts 209°
2026-04-23 15:10 -35.83034 -72.40460 18000 ft 362 kts 209°
2026-04-23 15:11 -35.85263 -72.41896 17523 ft 359 kts 209°
2026-04-23 15:11 -35.87473 -72.43322 17051 ft 356 kts 209°
2026-04-23 15:11 -35.89652 -72.44748 16563 ft 354 kts 211°
2026-04-23 15:11 -35.91754 -72.46303 16077 ft 352 kts 213°
2026-04-23 15:12 -35.93831 -72.47899 15600 ft 350 kts 213°
2026-04-23 15:12 -35.95902 -72.49480 15093 ft 349 kts 213°
2026-04-23 15:12 -35.97964 -72.51043 14645 ft 347 kts 213°
2026-04-23 15:12 -36.00008 -72.52585 14174 ft 344 kts 212°
2026-04-23 15:13 -36.02055 -72.54128 13682 ft 343 kts 212°
2026-04-23 15:13 -36.04084 -72.55655 13228 ft 340 kts 212°
2026-04-23 15:13 -36.06096 -72.57171 12730 ft 338 kts 212°
2026-04-23 15:13 -36.08068 -72.58656 12284 ft 336 kts 212°
2026-04-23 15:14 -36.10057 -72.60152 11825 ft 333 kts 212°
2026-04-23 15:14 -36.12033 -72.61636 11339 ft 331 kts 212°
2026-04-23 15:14 -36.13996 -72.63115 10921 ft 328 kts 212°
2026-04-23 15:14 -36.15884 -72.64540 10728 ft 307 kts 212°
2026-04-23 15:15 -36.17645 -72.65867 10572 ft 286 kts 212°
2026-04-23 15:15 -36.19284 -72.67118 10421 ft 271 kts 212°
2026-04-23 15:15 -36.20909 -72.68342 10042 ft 276 kts 212°
2026-04-23 15:15 -36.22564 -72.69585 9697 ft 278 kts 212°
2026-04-23 15:16 -36.24213 -72.70827 9358 ft 278 kts 212°
2026-04-23 15:16 -36.25868 -72.72073 9017 ft 278 kts 212°
2026-04-23 15:16 -36.27516 -72.73321 8725 ft 276 kts 212°
2026-04-23 15:16 -36.29149 -72.74556 8463 ft 272 kts 212°
2026-04-23 15:17 -36.30771 -72.75784 8125 ft 273 kts 212°
2026-04-23 15:17 -36.32392 -72.77010 7777 ft 275 kts 212°
2026-04-23 15:17 -36.34028 -72.78248 7423 ft 275 kts 212°
2026-04-23 15:17 -36.35662 -72.79485 7089 ft 274 kts 211°
2026-04-23 15:18 -36.37284 -72.80714 6785 ft 271 kts 212°
2026-04-23 15:18 -36.38884 -72.81929 6477 ft 270 kts 211°
2026-04-23 15:18 -36.40478 -72.83132 6164 ft 266 kts 211°
2026-04-23 15:18 -36.42065 -72.84316 5756 ft 265 kts 211°
2026-04-23 15:19 -36.43640 -72.85494 5249 ft 262 kts 211°
2026-04-23 15:19 -36.45197 -72.86656 4877 ft 261 kts 211°
2026-04-23 15:19 -36.46723 -72.87794 4573 ft 257 kts 210°
2026-04-23 15:19 -36.48250 -72.88935 4271 ft 254 kts 210°
2026-04-23 15:20 -36.49271 -72.89699 4058 ft 253 kts 210°
2026-04-23 15:20 -36.51281 -72.91171 3626 ft 253 kts 207°
2026-04-23 15:20 -36.52827 -72.92124 3497 ft 240 kts 204°
2026-04-23 15:20 -36.54267 -72.92966 3496 ft 218 kts 205°
2026-04-23 15:21 -36.55576 -72.93724 3497 ft 197 kts 204°
2026-04-23 15:21 -36.56766 -72.94410 3493 ft 180 kts 204°
2026-04-23 15:21 -36.57880 -72.95049 3507 ft 175 kts 204°
2026-04-23 15:21 -36.58989 -72.95692 3520 ft 176 kts 204°
2026-04-23 15:22 -36.60065 -72.96321 3510 ft 167 kts 205°
2026-04-23 15:22 -36.61112 -72.96932 3381 ft 165 kts 204°
2026-04-23 15:22 -36.62143 -72.97529 3118 ft 162 kts 204°
2026-04-23 15:22 -36.63152 -72.98112 2888 ft 157 kts 205°
2026-04-23 15:23 -36.64114 -72.98672 2669 ft 152 kts 205°
2026-04-23 15:23 -36.65054 -72.99219 2472 ft 146 kts 204°
2026-04-23 15:23 -36.65956 -72.99744 2274 ft 141 kts 204°
2026-04-23 15:23 -36.66842 -73.00258 2099 ft 140 kts 204°
2026-04-23 15:24 -36.67723 -73.00770 1900 ft 139 kts 204°
2026-04-23 15:24 -36.68586 -73.01271 1718 ft 134 kts 204°
2026-04-23 15:24 -36.69419 -73.01759 1531 ft 131 kts 205°
2026-04-23 15:24 -36.70243 -73.02236 1368 ft 131 kts 205°
2026-04-23 15:25 -36.71064 -73.02711 1178 ft 130 kts 204°
2026-04-23 15:25 -36.71884 -73.03185 1013 ft 130 kts 204°
2026-04-23 15:25 -36.72703 -73.03659 823 ft 130 kts 205°
2026-04-23 15:25 -36.73525 -73.04136 668 ft 130 kts 205°
2026-04-23 15:26 -36.74340 -73.04609 478 ft 128 kts 205°
2026-04-23 15:26 -36.75150 -73.05086 321 ft 130 kts 207°
2026-04-23 15:26 -36.75960 -73.05565 125 ft 127 kts 204°
2026-04-23 15:26 -36.76708 -73.06004 66 ft 98 kts 205°
2026-04-23 15:27 -36.77167 -73.06267 62 ft 47 kts 205°
2026-04-23 15:27 -36.77322 -73.06344 66 ft 10 kts 187°
2026-04-23 15:27 -36.77381 -73.06339 67 ft 10 kts 174°
2026-04-23 15:27 -36.77454 -73.06331 63 ft 8 kts 175°
2026-04-23 15:28 -36.77514 -73.06322 57 ft 8 kts 173°
2026-04-23 15:28 -36.77583 -73.06318 61 ft 9 kts 178°
2026-04-23 15:28 -36.77614 -73.06294 65 ft 5 kts 101°
2026-04-23 15:28 -36.77567 -73.06252 57 ft 9 kts 24°
2026-04-23 15:29 -36.77521 -73.06225 58 ft 9 kts 24°
2026-04-23 15:29 -36.77499 -73.06181 57 ft 6 kts 101°
2026-04-23 15:29 -36.77514 -73.06135 58 ft 4 kts 113°
2026-04-23 15:29 -36.77541 -73.06101 60 ft 7 kts 159°
2026-04-23 15:30 -36.77572 -73.06093 57 ft 5 kts 168°
2026-04-23 15:30 -36.77598 -73.06088 57 ft 3 kts 172°
2026-04-23 15:30 -36.77612 -73.06086 59 ft 2 kts 172°
2026-04-23 15:30 -36.77613 -73.06086 60 ft 0 kts 172°